This demonstration page uses our WeatherBlox Daily Observations layout. Learn more.

Left ArrowRight Arrow

Hourly Observations for March 20, 2021

Temp ( °F °C ) Dew Point ( °F °C ) Humidity (%) Winds ( mph kmh ) Pressure ( in mb ) Visibility ( mi km ) Precip ( " mm )
12:54 am 00:54 Clear 38 3.3 26 -3.3 62 62 S 7 11 30.37 1028 10 16 0.00 0.00
2:54 am 02:54 Clear 33 0.6 23 -5 66 66 S 9 15 30.37 1029 10 16 0.00 0.00
3:54 am 03:54 Clear 36 2.2 26 -3.3 67 67 SSE 9 15 30.35 1028 10 16 0.00 0.00
4:54 am 04:54 Clear 33 0.6 25 -3.9 72 72 S 6 9 30.35 1028 10 16 0.00 0.00
5:54 am 05:54 Clear 33 0.6 26 -3.3 75 75 SSE 7 11 30.35 1028 10 16 0.00 0.00
6:54 am 06:54 Clear 33 0.6 27 -2.8 78 78 S 9 15 30.34 1027 10 16 0.00 0.00
7:54 am 07:54 Sunny 33 0.6 27 -2.8 78 78 S 10 17 30.35 1028 10 16 0.00 0.00
8:54 am 08:54 Sunny 39 3.9 29 -1.7 67 67 S 10 17 30.34 1028 10 16 0.00 0.00
9:54 am 09:54 Sunny 45 7.2 29 -1.7 54 54 S 15 24 30.33 1027 10 16 0.00 0.00
10:54 am 10:54 Sunny 50 10 29 -1.7 44 44 S 17 28 30.31 1026 10 16 0.00 0.00
11:54 am 11:54 Sunny 55 12.8 30 -1.1 38 38 S 20 31 30.27 1025 10 16 0.00 0.00
12:54 pm 12:54 Sunny 59 15 31 -0.6 35 35 SSE 17 28 30.23 1024 10 16 0.00 0.00
1:54 pm 13:54 Sunny 62 16.7 28 -2.2 28 28 S 23 37 30.19 1022 10 16 0.00 0.00
2:54 pm 14:54 Sunny 65 18.3 27 -2.8 24 24 S 22 35 30.16 1021 10 16 0.00 0.00
3:54 pm 15:54 Sunny 66 18.9 26 -3.3 22 22 SSE 23 37 30.11 1020 10 16 0.00 0.00
4:54 pm 16:54 Sunny 66 18.9 25 -3.9 21 21 S 28 44 30.08 1019 10 16 0.00 0.00
5:54 pm 17:54 Sunny 65 18.3 26 -3.3 23 23 SSE 22 35 30.06 1018 10 16 0.00 0.00
6:54 pm 18:54 Sunny 61 16.1 28 -2.2 29 29 SSE 26 43 30.05 1018 10 16 0.00 0.00
7:54 pm 19:54 Clear 58 14.4 30 -1.1 35 35 SSE 21 33 30.05 1018 10 16 0.00 0.00
8:54 pm 20:54 Clear 56 13.3 29 -1.7 36 36 SSE 23 37 30.06 1018 10 16 0.00 0.00
9:54 pm 21:54 Clear 54 12.2 30 -1.1 40 40 SSE 20 31 30.07 1018 10 16 0.00 0.00
10:54 pm 22:54 Clear 52 11.1 32 0 47 47 SSE 20 31 30.06 1018 10 16 0.00 0.00
11:54 pm 23:54 Clear 50 10 32 0 50 50 S 21 33 30.05 1018 10 16 0.00 0.00

Powered by AerisWeather